Regional Weather Roundup
Issued by NWS Northern Indiana

Home | Current Version | Previous Version | Graphics & Text | Print | Product List | Glossary On
Versions: 1 2 3 4 5 6 7 8 9 10 11 12 13 14 15 16 17 18 19 20 21 22 23 24 25 26 27 28 29 30 31 32 33 34 35 36 37 38 39 40 41 42 43 44 45 46 47 48 49 50
000
ASUS43 KIWX 142010
RWRIWX

KIWX WEATHER ROUNDUP
NATIONAL WEATHER SERVICE NORTHERN INDIANA
300 PM EST THU DEC 14 2017

NOTE: "FAIR" INDICATES FEW OR NO CLOUDS BELOW 12,000 FEET WITH NO
SIGNIFICANT WEATHER AND/OR OBSTRUCTIONS TO VISIBILITY.

* THESE STATIONS ARE NOT UNDER NWS QUALITY CONTROL. THEY ALSO MAY NOT
  REPORT WEATHER SUCH AS PRECIPITATION OR FOG.

INZ001>027-142100-
NORTHERN INDIANA

CITY           SKY/WX    TMP DP  RH WIND       PRES   REMARKS
GARY*          PTSUNNY   30  14  51 W3        30.05S
VALPARAISO     PTSUNNY   28  18  66 S6        30.04S WCI  22
MICHIGAN CITY* LGT SNOW  23  18  80 S8        30.04F WCI  14
LAPORTE*       CLOUDY    22  16  78 S5        30.04F WCI  16
KNOX*          CLOUDY    25  14  63 CALM      30.05S
SOUTH BEND     CLOUDY    22  14  71 SW6       30.04F WCI  14
ELKHART*       MOSUNNY   21   9  58 CALM      30.03F
GOSHEN         CLOUDY    20  10  65 SW5       30.03F WCI  13
MONTICELLO*    PTSUNNY   27  12  52 CALM      30.04S
LOGANSPORT*    PTSUNNY   28  14  54 NE5       30.05S WCI  23
ROCHESTER*     CLOUDY    27  12  54 CALM      30.05S
WARSAW*        CLOUDY    23   9  54 CALM      30.04S
AUBURN*        MOSUNNY   27   9  46 CALM      30.03F
FORT WAYNE     CLOUDY    23   9  55 S3        30.04S
HUNTINGTON*    PTSUNNY   24   8  51 CALM      30.03F
PERU/GRISSOM   CLOUDY    27  13  55 CALM      30.03S
MARION*        CLOUDY    27  11  50 E6        30.04R WCI  21

$$
INZ028>050-142100-
CENTRAL INDIANA

CITY           SKY/WX    TMP DP  RH WIND       PRES   REMARKS
LAFAYETTE      CLOUDY    30  13  49 CALM      30.04S
KOKOMO*        CLOUDY    28  14  55 N3        30.04F
MUNCIE*        CLOUDY    29  10  45 NE8       30.02F WCI  21
INDIANAPOLIS   CLOUDY    30   9  41 NE3       30.03F

$$
MIZ043>046-050>051-056>058-064>065-071>073-077>080-142100-
SOUTHWEST LOWER MICHIGAN

CITY           SKY/WX    TMP DP  RH WIND       PRES   REMARKS
BATTLE CREEK   MOSUNNY   20  10  65 SW8       30.00F WCI  10
BENTON HARBOR  MOSUNNY   23  13  65 VRB5      30.03F WCI  17
COLDWATER*     CLOUDY    20   7  56 W3        30.01S
HILLSDALE*     SUNNY     21   9  58 N6        29.98S WCI  14
HOLLAND        LGT SNOW  21  16  81 S6        30.03S WCI  13
GRAND RAPIDS   FLURRIES  21  13  71 SW6       30.01S WCI  13
KALAMAZOO      CLOUDY    21  11  65 S5        30.01F WCI  15
STURGIS*       CLOUDY    20  10  64 SW5       30.01F WCI  13
THREE RIVERS*  PTSUNNY   21  10  62 SW5       30.03F WCI  15

$$
OHZ001>008-015>018-024>025-142100-
NORTHWEST OHIO

CITY           SKY/WX    TMP DP  RH WIND       PRES   REMARKS
WAUSEON*       FAIR      21  10  63 S5        30.03S WCI  15
DEFIANCE       CLOUDY    19   6  57 SW3       30.04S
FINDLAY        MOSUNNY   19   9  65 W8        30.04R WCI   9
TOLEDO EXPRESS CLOUDY    21   8  57 W6        30.03S WCI  13
TOLEDO METCALF SUNNY     21   7  54 NW10      30.04R WCI  10
LIMA           CLOUDY    21  15  78 W7        30.02S WCI  12

$$
AND FOR LAKE MICHIGAN COASTAL AND OPEN LAKE BUOY OBSERVATIONS

STATION/POSITION TEMP    WIND        PRES    VSBY  WAVE
                 AIR SEA DIR/SP/G                  HT/PER
                 (F)     (DEG/KT/KT) (MB)    (MI)  (FT/S)
CALUMET HARBOR    27     350/  7/ 10 1016.5F
MICHIGAN CITY     22     140/  9/ 10   N/A
BURNS HARBOR      28     290/ 10/ 12 1017.3F
SAINT JOSEPH      25     180/  2/  7 1017.3

$$
&&




USA.gov is the U.S. government's official web portal to all federal, state and local government web resources and services.